Theta_e
319 322 324 325 328 327 331 332 332 336 331 329 334 333 329 329 324 318 319 320 320 322 321 322 323 321 324 325 327 333 333 330 331 332 336 332 321 326 328 325 328 328 328 330 333 335 336 337 337 337 338 338 338 338 338 338 337 338 337 338 338 338 338 337 338 337 337 337 337 336 336 336 336 336 335 335 335 335 335 335 334 335 336 337 338 339 338 338 337 337 336 335 332 332 332 332 332
319 325 326 325 328 325 333 337 336 338 334 330 331 333 332 326 320 320 321 323 324 320 320 323 324 325 326 326 325 327 327 324 326 329 328 320 319 326 326 325 328 328 328 330 332 334 335 336 335 335 336 336 336 336 337 336 336 336 336 336 336 336 336 336 336 335 335 335 335 335 335 335 334 334 333 333 333 333 333 333 333 333 334 334 335 336 336 335 334 333 332 330 327 328 329 328 327
321 327 328 327 327 328 339 337 336 333 326 324 327 333 328 321 322 324 323 322 323 318 320 321 322 325 324 324 322 323 327 325 322 324 321 316 321 325 324 325 327 328 327 327 330 332 334 333 333 334 333 334 334 334 335 334 334 334 334 334 334 335 334 334 334 334 334 334 333 333 334 333 333 332 331 331 331 330 329 329 330 330 331 332 331 331 330 329 328 327 326 322 319 320 320 319 319
324 328 327 328 328 336 346 336 340 334 322 326 328 335 333 326 326 326 326 324 320 317 319 319 320 319 319 324 322 320 326 327 321 323 324 318 320 325 324 324 325 326 326 326 327 328 331 332 332 332 332 333 333 333 333 332 332 332 332 332 332 332 332 332 332 332 332 332 331 331 331 331 330 329 329 329 327 326 326 325 326 327 327 327 327 326 324 322 321 319 317 312 309 309 309 309 309
326 328 324 328 330 335 339 330 337 332 322 332 334 339 343 335 328 329 330 324 319 319 319 318 320 317 316 322 322 322 326 326 318 316 321 319 320 323 323 323 322 323 323 323 322 323 326 328 330 330 331 331 331 331 331 331 330 330 330 330 330 330 330 330 329 329 328 329 328 328 328 328 328 327 326 324 322 322 321 321 322 322 323 323 323 321 319 317 314 310 307 304 302 301 301 302 302
325 326 324 324 324 328 333 328 332 331 326 332 335 340 342 334 327 329 329 323 320 321 319 317 319 317 318 320 319 321 322 322 319 316 317 318 320 322 323 322 320 320 319 319 319 319 321 325 327 329 330 329 329 329 329 329 329 329 328 327 325 326 327 326 327 327 326 326 326 326 326 326 325 323 320 317 315 315 314 314 315 316 317 318 317 316 313 310 307 303 301 299 299 299 299 299 299
323 325 328 326 325 328 336 334 335 338 331 328 333 334 331 328 324 324 324 321 320 319 317 317 318 316 318 319 319 319 316 318 318 317 316 317 320 321 323 321 320 319 318 318 317 318 320 323 325 328 328 327 328 328 328 328 327 324 321 319 319 321 322 322 324 325 325 324 323 322 321 320 318 314 311 308 307 306 306 305 305 306 307 308 309 309 307 305 302 300 299 298 298 298 298 298 298
323 327 330 334 333 329 332 333 332 335 331 325 328 329 327 327 323 323 323 320 319 318 317 319 319 317 317 316 323 321 313 317 316 316 316 316 320 321 323 321 321 320 319 319 316 318 320 322 325 328 327 327 327 326 326 326 324 316 313 313 315 318 319 319 319 321 320 316 313 311 310 308 306 304 303 302 301 301 300 300 300 300 300 301 302 303 304 303 301 300 299 298 297 297 298 298 298
322 324 326 331 329 325 330 330 326 328 329 325 322 324 325 323 322 322 323 321 319 319 319 321 319 316 318 317 325 321 313 317 316 316 315 317 320 321 322 321 321 320 320 320 319 319 319 322 325 327 326 326 326 325 326 324 318 309 310 311 312 314 315 314 312 311 308 306 304 302 302 301 301 300 300 299 299 299 299 298 298 298 298 299 299 300 301 302 301 300 299 298 298 298 298 298 297
322 322 323 328 325 322 327 326 325 326 329 327 321 322 322 321 322 320 322 322 319 319 318 318 316 315 318 321 326 320 316 317 315 316 315 318 320 320 321 320 321 319 320 321 321 319 318 321 323 326 325 324 325 324 324 321 315 309 309 308 308 308 308 307 305 304 302 301 301 300 300 299 299 299 299 298 298 298 298 298 297 298 297 298 298 298 300 300 299 299 298 298 298 297 297 297 297
328 329 327 326 325 324 324 325 328 330 330 325 322 322 319 319 321 319 319 320 319 317 317 315 316 319 317 322 328 318 314 315 315 316 316 318 320 320 320 320 320 320 319 320 321 319 317 318 321 325 324 324 324 323 324 320 313 308 307 306 306 305 304 303 302 301 300 300 299 299 299 298 298 297 298 298 297 297 297 297 297 297 297 297 297 298 299 299 297 297 297 297 297 297 297 297 297
327 334 336 329 330 329 327 331 331 330 330 325 327 324 317 317 319 320 320 320 321 319 319 317 317 320 317 323 328 314 311 315 315 315 316 318 319 319 319 320 320 320 319 319 320 318 316 315 319 323 323 324 322 322 323 318 309 306 305 304 304 303 302 301 300 299 298 298 298 297 297 297 297 297 297 297 297 297 297 297 297 297 297 297 297 297 297 297 296 296 296 296 296 296 296 296 296
331 335 337 329 332 331 326 332 333 331 331 330 329 319 314 319 320 321 322 319 319 320 320 318 316 316 317 324 324 318 315 315 315 315 316 317 318 318 318 319 320 320 320 319 320 318 317 315 317 321 322 321 320 320 318 310 305 303 302 301 301 300 300 299 298 298 297 297 297 297 297 297 297 297 297 297 297 297 297 297 296 297 297 296 296 296 296 296 296 296 296 296 296 296 296 296 296
330 336 335 325 328 330 327 330 331 327 326 332 328 316 315 319 320 321 321 319 320 321 318 315 315 316 319 321 325 333 324 313 314 314 315 317 317 317 317 319 319 320 320 319 319 317 316 314 315 318 319 318 316 316 310 304 302 301 300 299 299 298 298 298 297 297 297 297 297 297 297 297 296 296 296 296 297 297 297 296 296 297 297 296 296 296 296 296 296 296 296 295 295 295 296 296 296
323 338 336 326 327 327 326 326 325 321 322 329 323 316 316 317 319 321 319 319 321 318 313 312 313 316 320 320 325 332 320 312 314 313 314 315 315 316 316 317 318 319 319 319 317 316 315 314 315 316 316 315 314 311 306 303 301 300 299 298 298 298 297 297 297 297 297 297 297 297 297 297 297 296 296 296 296 296 296 297 297 296 296 297 296 296 296 295 295 295 295 295 295 295 295 295 295
327 340 332 326 329 324 323 324 321 321 326 332 323 315 318 318 317 319 317 316 319 315 314 316 314 314 319 321 320 315 312 313 312 312 313 313 313 314 314 316 317 318 318 318 317 316 315 314 315 315 315 313 311 307 304 302 300 299 298 297 297 297 297 297 297 297 297 297 297 297 297 297 297 297 296 296 296 296 296 296 296 296 296 296 296 296 296 295 295 295 295 295 295 295 295 295 295
327 333 327 325 329 325 325 326 321 322 330 334 326 318 318 321 318 314 313 313 318 317 317 319 313 313 318 318 313 308 310 311 310 311 310 310 311 311 312 315 316 317 317 317 317 316 314 314 315 314 313 311 309 306 303 301 299 299 298 297 297 297 297 297 297 298 297 297 297 297 297 297 297 297 296 296 296 296 296 296 296 296 296 296 296 295 295 295 295 295 295 295 295 295 295 295 295
323 326 323 321 327 327 329 331 326 321 323 324 321 319 318 321 321 316 313 315 318 316 318 320 315 315 312 310 309 310 310 309 309 309 307 307 308 308 310 313 315 316 317 317 317 316 315 314 314 313 311 310 307 305 303 301 299 298 297 297 297 297 297 297 297 297 297 297 297 297 297 297 297 296 296 296 296 296 296 296 296 296 296 296 296 296 296 295 295 295 295 295 295 295 295 295 295
326 328 321 323 330 328 328 331 327 320 319 319 319 319 317 319 319 314 315 320 319 317 318 318 318 318 313 307 308 309 308 307 307 306 305 305 305 307 308 310 313 314 315 316 315 315 315 313 312 311 310 308 306 304 302 301 299 298 297 297 296 297 297 297 297 297 297 297 297 297 297 297 296 296 296 296 297 296 296 296 296 296 296 296 296 296 295 295 295 295 295 295 294 294 294 294 294
329 327 322 331 331 325 325 326 323 321 319 317 318 317 316 319 317 314 317 320 319 318 317 317 319 321 319 314 306 306 306 304 305 305 304 304 305 306 307 309 310 312 313 314 314 314 314 313 311 310 309 307 305 303 302 300 298 297 297 296 296 297 296 297 296 296 296 296 297 297 297 297 297 297 296 296 296 296 296 296 296 296 296 295 295 295 295 294 294 294 294 294 294 294 294 294 294
326 323 326 335 326 322 324 323 322 321 317 315 318 315 316 319 316 315 317 317 317 316 316 316 319 319 321 321 308 303 304 303 303 304 304 303 304 305 306 308 309 311 311 311 313 313 312 312 311 310 308 306 304 302 301 300 298 297 296 296 296 296 296 296 296 296 296 296 296 296 297 297 297 297 296 296 296 296 296 296 296 295 295 294 294 294 294 294 293 293 293 293 294 294 294 294 294
323 323 326 329 322 319 320 322 322 320 316 315 317 316 315 315 314 317 317 316 316 317 319 317 318 318 319 321 309 303 303 303 302 302 303 303 303 304 305 306 307 308 308 309 310 311 311 311 310 309 308 305 303 301 300 299 298 297 296 296 296 296 296 296 296 296 296 296 296 296 296 296 296 296 296 296 296 296 296 295 295 294 294 294 294 294 293 293 293 293 293 293 293 293 294 293 294
321 323 324 324 320 319 318 319 320 318 316 315 316 315 314 314 315 318 317 316 314 316 321 319 318 314 312 313 308 307 307 305 303 302 302 303 303 303 304 304 305 306 306 307 308 309 309 309 309 309 308 305 302 301 300 299 297 296 296 296 296 296 296 296 296 296 296 296 296 296 296 296 296 296 296 296 295 295 295 295 294 294 294 294 293 293 293 293 293 293 293 293 293 293 293 293 293
320 323 324 323 320 320 319 317 318 318 316 316 316 313 314 315 315 315 315 315 313 314 318 318 315 308 309 314 313 311 308 305 303 303 303 303 303 304 305 304 304 305 305 305 305 307 308 308 308 307 307 305 302 301 300 298 297 296 296 296 296 296 296 296 296 296 296 296 296 296 296 296 296 296 296 295 295 295 294 294 294 294 293 293 293 293 293 293 293 293 293 293 293 293 293 293 293
321 322 323 322 320 321 320 317 317 317 316 314 314 314 315 315 313 313 314 314 313 314 315 316 313 310 314 318 315 310 308 306 304 303 303 303 304 304 304 303 303 303 303 304 304 305 306 307 307 306 305 304 302 300 300 298 297 296 296 296 296 296 296 296 296 296 296 296 295 295 296 296 296 296 296 295 295 295 294 294 294 294 293 293 293 293 293 293 293 293 293 293 293 293 293 293 293
323 321 322 321 319 319 318 316 315 315 316 314 313 317 316 314 313 314 314 314 314 315 316 315 312 314 317 316 313 309 309 307 304 303 303 303 304 303 303 303 303 303 303 303 303 304 305 305 305 305 303 303 302 301 300 298 297 296 296 296 296 296 296 296 296 296 296 295 295 295 295 296 295 295 295 295 295 294 294 294 294 294 293 293 293 293 293 293 293 293 293 293 293 293 293 293 293
321 320 320 319 316 316 315 314 314 314 316 316 314 316 316 313 313 314 315 317 317 316 317 314 312 314 315 314 312 308 308 307 305 304 304 303 303 302 303 303 303 303 303 303 303 303 303 303 304 304 303 302 301 300 299 298 297 296 296 296 296 296 296 296 296 295 295 295 295 295 295 295 295 295 295 295 295 295 294 294 294 294 294 294 293 293 294 294 294 293 293 293 293 293 293 293 293
316 315 316 317 315 315 314 313 314 312 315 317 314 314 316 313 313 315 315 317 316 315 317 315 315 315 313 312 311 309 308 306 305 305 304 303 303 303 303 303 304 303 303 303 304 303 302 303 303 303 303 302 301 300 299 297 297 296 295 296 296 296 296 296 295 295 295 295 295 295 295 294 294 294 294 294 294 295 295 295 294 294 294 294 294 294 294 294 294 294 293 293 293 293 293 292 292
314 314 314 316 315 314 314 314 315 314 315 317 314 313 315 315 315 315 313 314 314 314 316 315 315 315 312 311 310 309 307 305 304 304 304 305 305 305 304 305 305 304 304 305 303 302 303 303 303 303 302 301 300 300 298 298 297 296 295 296 296 296 296 295 295 295 295 295 295 295 295 294 293 293 293 294 294 295 295 295 295 294 294 295 294 294 295 295 294 294 293 293 293 293 292 292 292
314 314 314 314 315 316 315 315 316 314 315 317 314 312 314 316 315 314 313 312 312 314 316 314 314 313 312 310 309 309 308 306 306 304 305 306 306 306 305 306 306 305 305 304 302 303 303 302 302 302 301 301 300 300 299 298 297 296 295 295 296 296 296 295 295 295 295 295 295 295 295 294 293 293 293 293 294 294 294 295 295 294 294 294 295 295 295 295 294 294 293 293 293 293 293 293 293
316 313 315 316 315 316 314 315 315 313 315 316 314 313 313 314 313 313 313 313 313 315 316 315 314 313 312 311 310 309 308 306 305 306 306 306 307 307 306 307 306 305 305 304 304 305 303 302 302 301 301 301 300 300 299 299 298 297 296 295 295 296 295 295 295 295 295 295 295 295 295 294 293 292 293 293 293 294 294 294 294 294 295 294 295 295 295 294 294 293 293 293 293 293 293 293 293
323 314 315 319 317 315 314 313 314 313 314 312 313 316 314 313 314 314 312 313 315 315 316 315 314 314 313 311 310 309 309 306 304 305 306 307 307 307 307 307 306 306 306 306 306 304 303 302 302 301 301 301 301 300 300 299 299 298 297 296 295 295 295 295 295 295 295 294 294 294 295 294 293 292 292 292 293 293 294 294 294 294 294 295 295 295 294 294 294 293 293 293 293 293 293 293 292
326 315 314 319 317 315 314 316 317 315 313 311 312 315 315 314 316 317 313 312 314 316 316 315 314 313 312 311 310 309 309 308 306 305 305 306 307 307 307 307 307 307 307 306 306 304 303 303 302 301 301 301 301 300 300 299 299 299 297 296 295 295 295 295 295 294 294 294 294 294 294 294 293 292 292 292 293 293 293 294 294 294 294 295 295 295 294 293 293 293 293 293 292 293 293 292 292
320 315 316 318 317 314 315 317 317 314 313 313 313 313 313 313 314 316 315 313 313 315 315 314 313 312 311 311 310 309 309 309 309 307 306 306 307 307 308 307 308 307 307 306 306 305 305 303 302 302 301 301 301 300 300 300 299 298 297 296 295 295 295 295 295 295 294 294 293 294 294 294 293 292 292 292 292 293 293 293 293 294 294 294 294 294 294 293 293 293 293 292 292 292 292 292 292
315 317 318 318 316 315 314 315 315 315 313 313 314 313 312 312 311 312 312 312 312 312 313 312 312 311 310 311 310 311 310 309 309 307 307 307 307 307 307 307 307 307 307 306 306 305 305 303 302 302 301 300 300 300 300 299 299 298 297 296 296 295 295 295 296 296 296 295 294 293 294 294 293 292 292 292 292 292 292 292 293 293 294 294 294 294 294 293 293 293 292 292 292 292 292 292 292
314 315 316 316 315 314 314 313 312 313 312 311 313 312 311 311 311 311 311 312 312 311 311 310 310 311 310 310 310 310 311 311 310 308 307 308 308 308 307 307 307 307 307 306 305 305 303 303 302 301 301 300 300 299 299 299 298 298 297 296 296 296 296 297 297 297 297 296 294 293 293 293 293 292 291 291 292 292 292 292 293 293 294 294 294 294 294 293 293 292 292 292 292 292 291 291 291
313 313 314 315 313 312 312 312 311 312 310 311 313 312 311 311 311 311 311 311 312 312 311 311 311 311 311 311 311 311 311 311 311 309 308 308 308 308 307 307 307 306 306 306 305 305 304 303 302 301 300 300 299 299 299 298 298 297 297 296 296 296 297 297 298 298 297 296 295 294 293 293 293 292 291 291 291 292 292 292 292 293 293 294 294 294 294 293 292 292 292 291 291 291 291 290 290
313 314 314 314 313 312 312 311 311 311 310 311 313 312 311 311 311 311 311 311 312 312 312 312 312 312 312 312 311 311 311 312 312 311 309 308 307 308 307 307 307 306 306 306 305 305 304 303 302 301 300 300 299 299 299 298 298 298 297 297 296 296 297 297 297 297 297 296 296 295 294 293 292 292 291 291 291 291 291 292 292 293 293 293 293 292 292 292 291 291 291 291 291 290 290 290 290
314 315 314 314 313 312 312 312 312 311 312 315 315 313 311 311 311 311 311 312 311 312 312 312 313 312 312 312 312 312 311 312 312 311 311 307 306 306 306 306 306 307 306 306 306 305 304 302 301 301 300 300 300 299 299 299 299 298 298 298 297 296 296 297 297 297 297 297 296 296 295 293 292 292 291 291 291 291 291 292 292 293 293 293 293 292 291 291 291 291 291 291 291 290 290 290 290
314 315 314 314 313 313 313 314 316 314 312 317 316 312 311 311 311 311 311 311 312 312 312 312 312 313 313 312 313 312 312 312 311 312 311 309 306 305 304 305 305 306 306 305 305 304 303 302 301 301 300 300 299 299 299 299 298 298 297 297 297 296 296 296 296 296 296 296 296 296 295 294 293 291 291 291 291 291 291 292 292 293 293 293 293 293 292 292 291 291 291 291 291 290 289 289 289
314 315 313 313 313 313 313 313 316 315 313 316 315 313 314 314 314 313 312 311 311 311 312 312 312 312 312 312 312 312 312 312 312 312 311 312 313 306 302 305 305 304 305 305 304 304 303 302 301 301 300 300 299 299 299 298 298 297 296 296 296 296 295 295 294 294 295 295 296 295 295 295 294 292 291 291 291 291 291 291 292 292 292 292 292 293 293 292 291 291 291 291 291 290 290 289 289
313 315 314 313 313 313 313 314 314 315 318 317 315 315 317 319 318 316 314 314 313 312 311 312 312 311 312 312 312 312 312 311 312 312 311 313 315 308 302 304 305 304 305 305 305 304 304 303 301 301 300 299 299 299 299 298 297 297 296 296 295 295 294 294 294 295 295 295 295 295 294 294 294 293 291 291 291 291 291 291 291 292 292 292 292 292 292 291 291 291 291 291 290 290 290 289 288
314 320 320 314 312 314 315 315 315 319 322 318 316 319 318 318 319 318 317 317 316 315 314 313 312 312 312 312 312 312 312 312 311 312 312 312 313 312 306 302 303 304 305 305 305 304 303 302 301 300 300 299 299 299 298 298 297 297 297 296 296 295 294 294 295 295 295 294 294 294 294 294 294 293 292 291 291 291 291 291 291 291 291 292 291 291 291 291 291 290 290 290 289 289 289 289 288
316 322 324 320 317 317 316 315 316 319 320 317 317 320 319 317 317 319 318 317 317 316 316 315 313 313 313 313 313 312 313 312 313 313 313 312 313 313 308 303 303 305 305 305 304 304 303 302 301 300 299 299 299 299 298 298 298 297 296 296 296 296 296 296 295 295 294 294 293 293 293 294 294 294 293 291 291 290 290 290 290 290 290 291 291 291 291 290 290 290 289 289 289 289 289 289 288
318 318 319 320 319 318 317 317 318 318 319 318 317 318 320 319 317 319 316 314 318 317 316 315 314 314 314 314 314 313 313 312 312 313 312 312 312 308 305 304 305 306 305 305 304 304 302 301 300 299 299 299 298 298 298 298 298 297 297 296 296 296 296 296 295 294 294 294 293 293 293 293 293 293 293 292 291 290 290 290 290 290 290 290 290 290 290 289 289 289 289 289 289 288 288 288 288
318 317 318 320 321 320 320 322 320 319 321 320 319 319 319 319 318 320 316 316 320 318 315 314 313 315 315 314 315 314 314 313 313 312 311 311 308 305 305 305 305 305 305 305 304 303 302 300 300 299 299 299 298 298 298 298 298 297 297 296 296 296 296 295 295 294 294 293 293 293 292 292 292 293 292 292 291 290 290 290 289 290 290 290 289 289 289 289 289 289 289 289 289 289 288 288 288
315 319 323 324 324 324 325 325 320 319 321 321 323 321 317 319 319 321 321 320 320 317 316 317 315 316 316 314 314 314 314 314 313 313 314 313 306 302 304 304 303 304 303 303 303 302 301 300 299 299 298 298 298 298 298 298 297 297 297 297 296 296 296 295 294 294 293 293 293 292 292 292 292 292 292 292 292 291 291 290 289 289 289 289 289 289 289 289 289 289 289 289 288 288 288 288 287
314 321 326 324 324 324 325 325 321 321 322 321 324 320 316 319 317 319 321 319 318 317 319 324 323 322 319 314 314 315 314 313 312 313 317 319 314 308 304 302 302 302 302 302 302 301 300 299 299 298 298 298 298 297 297 297 297 297 297 297 297 296 296 295 294 294 293 293 292 292 291 291 291 291 291 292 291 291 291 290 289 289 288 289 289 288 288 288 289 288 288 288 288 287 287 287 287
315 321 322 320 323 323 322 323 321 322 322 318 318 317 316 317 316 317 318 317 318 317 317 322 325 326 324 321 320 316 314 314 313 313 317 323 325 321 312 304 300 300 300 301 300 300 300 299 299 298 297 297 297 297 297 297 297 297 297 296 296 296 296 295 295 294 294 293 293 292 291 291 290 291 291 291 291 291 291 290 290 289 288 288 288 288 288 288 288 288 288 288 287 287 287 287 287
316 319 320 320 322 322 322 323 322 321 321 317 314 316 317 317 318 319 316 314 316 316 315 317 319 321 322 321 319 314 313 314 312 313 320 326 327 321 311 303 299 299 299 299 300 300 299 299 298 298 297 297 297 297 296 296 297 297 297 296 296 296 296 295 295 295 294 293 293 292 292 291 291 291 291 291 291 291 291 291 290 290 289 288 288 288 288 287 287 287 287 287 287 287 287 287 287
314 318 322 320 323 327 325 325 324 321 322 319 313 317 321 318 319 321 317 315 319 319 318 315 313 314 314 313 313 312 313 313 312 317 324 326 322 315 306 301 299 300 299 299 299 299 298 298 298 298 297 297 297 296 296 296 296 296 296 296 296 296 296 295 295 295 294 294 293 293 292 292 292 292 291 291 291 291 291 290 290 290 289 288 288 287 287 287 287 286 287 287 287 286 286 286 286
315 319 322 317 321 328 324 323 324 320 322 320 315 319 322 317 315 316 315 316 317 318 317 314 313 313 314 314 314 314 314 313 313 318 324 325 322 314 304 300 300 300 299 299 299 299 299 299 298 298 298 297 297 297 296 296 296 296 296 296 296 296 296 295 295 295 295 294 294 293 293 292 292 292 291 291 291 291 291 290 290 290 289 288 287 287 287 286 286 286 286 286 286 286 286 286 285
316 317 319 316 318 321 320 321 321 318 320 320 318 320 318 316 316 317 318 317 315 316 315 314 314 314 315 315 314 313 313 312 311 313 318 322 324 318 304 299 301 300 299 299 298 299 299 299 298 298 297 297 297 297 297 296 296 296 296 296 296 295 295 295 295 295 294 294 293 293 293 292 292 292 292 291 291 290 290 290 290 289 289 288 287 287 287 286 286 285 285 286 286 285 285 285 285
318 320 318 315 316 318 319 321 320 318 319 319 318 319 317 317 319 319 322 322 320 322 319 314 313 314 315 313 312 312 313 313 313 313 317 321 326 320 305 299 302 301 300 299 299 299 298 299 299 298 297 297 297 297 297 296 296 296 296 296 295 295 295 295 295 295 294 293 293 293 293 292 292 292 292 291 291 290 290 290 289 289 288 288 287 286 286 286 285 285 285 285 285 285 285 284 284
317 319 316 315 318 320 320 321 321 319 319 319 318 319 317 317 318 317 319 322 322 322 319 315 315 316 316 315 314 315 315 315 315 314 315 317 320 316 304 301 303 302 301 300 300 299 298 298 298 298 298 298 297 297 296 296 296 296 296 296 296 295 295 295 295 294 294 293 293 293 292 292 292 292 291 291 291 290 290 289 289 288 288 287 287 286 286 285 285 285 284 284 284 284 284 284 283
312 312 314 315 316 319 320 321 321 319 319 320 320 320 319 320 324 322 320 323 322 319 317 317 317 316 317 317 316 315 314 314 314 312 312 312 315 311 303 302 303 302 302 301 300 300 299 299 298 298 299 298 298 297 297 296 296 296 296 296 296 296 295 295 294 294 294 293 293 293 292 292 292 291 291 291 290 290 290 289 289 288 287 287 286 286 285 285 284 284 284 284 284 284 284 284 283
316 314 316 315 313 318 318 317 318 318 318 319 321 321 319 320 326 322 316 319 319 315 314 315 316 316 314 314 314 315 314 313 313 312 310 310 312 309 303 303 304 302 302 302 301 301 300 299 299 298 298 298 298 298 297 297 297 296 296 296 296 296 295 295 294 294 294 293 293 293 292 292 291 291 291 290 290 290 290 290 289 288 287 287 286 286 285 285 284 284 283 284 284 283 283 283 282
319 316 316 315 314 317 317 316 318 318 317 318 319 320 319 318 321 317 313 316 315 314 313 314 315 315 314 314 314 313 314 314 311 309 308 309 311 309 303 302 303 302 302 302 302 302 300 300 299 299 298 298 298 298 298 298 297 297 296 296 296 295 295 295 294 294 294 293 293 293 292 292 291 291 291 290 290 290 289 289 289 288 287 286 286 286 285 285 284 283 283 283 283 283 283 282 281
Wind_Speed
1 2 2 1 3 1 2 4 2 3 2 1 3 1 4 5 2 3 4 3 0 3 3 1 2 5 4 3 7 7 5 7 6 5 4 4 7 22 24 15 22 29 30 29 27 25 23 21 19 19 19 17 17 17 16 16 16 16 15 14 13 12 12 11 11 10 9 8 7 7 7 6 6 6 6 6 6 6 7 6 6 7 7 7 6 6 7 6 4 1 2 1 2 2 2 2 3
1 1 1 1 3 2 1 3 2 4 4 3 4 3 4 4 1 5 8 6 4 4 0 3 3 3 4 2 3 3 3 4 4 4 3 5 10 20 22 17 25 29 30 29 28 27 25 23 20 19 18 17 17 16 16 15 15 15 14 14 13 12 11 10 10 9 8 7 7 7 6 6 5 5 5 5 6 6 5 6 5 6 6 6 4 5 4 3 2 3 4 3 2 1 2 3 3
1 0 2 1 2 3 1 4 1 1 2 3 5 5 3 2 6 8 9 8 7 3 2 2 2 2 3 2 0 2 4 3 3 2 1 9 10 19 25 20 26 27 28 28 27 28 26 24 21 19 17 17 16 15 16 15 14 14 14 14 13 12 11 11 10 9 8 8 8 7 6 6 6 5 5 5 5 6 6 6 5 6 6 5 4 3 3 2 2 2 2 1 1 1 2 2 3
1 1 3 1 1 3 4 3 2 4 1 4 4 6 3 4 8 7 7 7 6 1 2 0 1 1 3 2 2 0 4 4 5 6 3 13 14 21 30 22 25 26 27 28 26 27 25 25 23 20 18 18 17 16 16 15 15 15 14 14 14 13 13 12 11 10 9 9 9 9 8 7 6 6 6 5 5 6 6 6 6 6 6 5 4 3 2 1 1 0 0 0 0 1 1 1 2
1 1 3 3 2 1 3 1 2 3 4 4 2 6 5 7 7 6 6 6 4 1 1 1 1 2 1 3 3 1 5 2 5 10 5 13 16 23 31 25 26 26 26 27 25 26 25 26 24 20 18 17 17 17 17 16 16 16 15 16 16 15 15 14 13 12 11 11 11 10 9 9 8 7 7 6 7 7 6 7 6 6 6 5 4 3 3 2 1 1 1 1 1 1 1 1 1
1 2 4 4 2 1 3 1 2 2 5 5 3 7 7 7 6 6 5 6 4 3 3 1 1 1 1 3 2 3 5 2 2 10 7 10 17 26 31 27 27 26 26 26 25 25 25 26 22 18 18 18 18 17 17 17 16 16 16 17 18 17 17 17 15 15 13 13 12 11 11 10 9 8 8 8 7 7 6 6 6 7 6 5 4 3 3 2 2 2 1 2 2 2 2 1 1
2 1 4 4 2 2 3 3 4 4 5 6 5 7 9 7 4 4 3 3 2 3 3 3 1 2 3 2 2 4 5 4 2 6 7 10 20 28 30 28 27 26 25 25 25 25 25 25 21 18 18 18 18 17 18 17 17 17 18 18 18 17 18 17 16 15 14 14 13 13 12 11 10 9 8 7 7 7 7 6 6 7 6 6 5 4 4 3 3 2 2 3 3 3 4 3 3
3 1 1 3 1 2 3 2 4 4 4 5 5 7 9 7 4 4 3 2 2 3 2 3 1 1 5 1 2 4 4 8 4 3 6 13 23 30 31 30 28 26 25 25 25 24 24 24 20 18 18 18 18 18 18 17 18 19 19 18 18 17 16 16 16 15 14 14 13 13 12 12 11 9 9 8 8 8 8 7 7 7 7 7 6 6 5 5 5 5 5 5 5 6 6 6 6
4 2 0 2 2 1 0 3 4 4 5 5 6 7 9 5 5 5 5 4 3 2 4 4 4 3 4 1 4 5 3 10 8 6 8 18 26 31 32 31 30 29 26 25 24 23 24 24 19 18 18 18 18 18 17 17 18 19 18 17 17 16 15 15 15 14 14 13 12 12 11 11 10 9 9 9 8 9 9 9 9 8 8 8 7 7 7 7 7 7 7 7 7 7 7 6 6
3 3 1 1 2 2 3 3 3 4 6 5 7 10 9 4 6 6 6 6 4 1 5 3 4 4 2 2 6 3 3 9 10 9 12 23 28 30 32 31 30 29 28 26 24 23 24 23 20 18 18 17 17 17 16 16 18 18 17 17 16 16 16 15 15 14 13 12 11 11 11 10 10 10 10 9 9 10 10 10 10 10 10 9 9 9 8 8 7 7 7 7 6 6 6 5 5
2 4 2 2 2 2 4 4 4 5 6 4 7 11 9 5 6 4 4 5 5 3 3 3 2 4 1 3 5 3 4 9 12 11 17 27 29 30 31 30 29 28 28 27 25 23 24 24 21 19 18 17 16 16 15 16 17 17 17 16 16 16 16 15 14 14 13 12 12 12 11 11 11 11 11 11 11 11 12 12 12 11 10 10 9 9 8 8 7 7 7 6 6 6 5 5 5
1 3 3 3 2 3 4 3 5 6 7 4 6 8 3 7 6 5 6 5 4 3 5 4 3 4 3 5 4 3 5 11 14 13 21 29 30 30 29 29 28 27 27 26 25 24 24 24 23 21 20 19 18 16 16 16 18 18 17 17 16 16 16 15 14 14 13 13 13 13 12 12 12 12 12 12 13 12 13 12 12 11 11 10 9 9 9 8 7 7 6 6 6 6 5 5 5
2 1 4 2 3 2 2 2 5 6 7 4 5 5 3 7 5 7 7 5 3 2 7 8 4 2 3 4 4 5 5 13 15 15 24 29 30 29 28 28 27 26 26 25 25 25 25 25 24 23 22 21 20 19 19 19 19 18 18 17 17 17 16 15 15 14 14 14 14 15 14 14 14 14 13 13 13 13 13 12 12 11 11 10 10 9 9 8 7 6 6 6 6 5 5 5 5
2 3 4 1 1 1 2 2 5 3 5 6 4 3 2 3 4 5 6 4 7 6 6 6 6 1 3 2 4 5 5 15 18 20 27 29 29 28 27 27 27 27 26 25 25 26 26 27 26 25 23 23 23 23 22 21 20 19 19 18 18 17 16 16 15 15 15 16 16 16 16 16 15 15 14 14 13 13 13 12 12 11 11 11 10 10 9 8 7 7 7 6 6 5 5 5 5
2 2 4 1 2 2 3 3 3 3 4 6 3 1 3 4 3 4 5 7 8 6 1 2 5 2 3 4 5 5 5 17 21 23 28 28 27 26 26 26 26 27 26 26 26 26 27 28 27 26 25 25 25 24 23 22 21 20 19 18 18 17 17 17 17 17 17 18 17 17 17 16 16 15 14 13 13 13 13 13 12 12 12 11 10 10 9 8 8 8 7 7 7 6 6 5 5
3 3 4 1 2 2 3 4 2 2 5 6 4 1 1 7 3 2 5 5 4 3 0 3 5 2 4 7 6 7 4 20 24 25 28 25 25 24 24 25 26 27 27 27 27 27 28 29 29 27 27 27 27 26 24 23 21 20 19 18 18 18 18 18 18 19 18 17 17 16 15 15 14 14 13 13 12 12 13 13 12 12 11 11 10 9 9 8 8 8 7 7 7 7 6 6 6
3 4 3 1 2 3 4 4 4 3 5 6 6 1 2 7 3 2 2 2 3 3 2 5 3 1 4 4 5 5 9 24 25 26 26 23 23 22 22 25 26 28 29 29 29 29 29 30 30 29 29 29 28 26 24 23 21 20 20 19 19 19 20 20 20 19 18 17 17 16 15 14 14 13 13 13 12 12 12 12 11 11 10 10 9 8 8 8 7 7 7 7 7 7 7 6 7
2 3 2 3 3 4 6 7 6 3 4 5 6 1 5 5 5 1 2 2 4 3 4 5 5 4 3 4 4 4 19 26 27 28 25 22 22 21 23 26 29 31 32 32 32 31 31 32 32 31 31 30 29 27 25 24 22 22 21 20 21 21 21 21 20 19 19 18 18 17 16 15 15 14 14 13 13 13 12 12 11 10 10 9 8 8 7 7 7 6 6 6 6 6 6 6 6
2 3 2 4 6 5 6 7 5 4 4 6 7 3 5 6 4 1 3 7 4 5 6 4 7 9 4 1 4 13 23 26 28 28 25 24 25 24 24 26 30 32 34 37 37 36 34 34 34 34 33 32 31 29 27 25 24 23 22 22 22 22 22 22 20 20 20 20 19 18 17 17 16 15 15 15 14 14 13 12 12 11 10 9 8 8 7 7 6 6 6 6 7 7 6 7 7
2 3 2 6 7 6 6 7 7 7 4 6 8 2 3 6 4 1 4 9 7 7 7 4 7 12 10 3 8 16 21 24 26 26 26 27 28 28 27 28 32 36 40 41 39 38 37 37 36 36 34 33 32 30 28 26 25 24 23 23 23 23 23 22 21 22 21 21 21 20 19 19 18 17 17 16 16 15 15 14 13 12 11 10 9 8 7 7 7 7 7 7 7 7 7 7 7
2 4 5 7 5 4 8 9 9 8 4 4 5 3 4 7 3 3 4 7 10 9 8 10 12 14 11 6 9 15 18 19 22 24 24 25 27 28 29 33 36 38 37 36 37 40 40 40 39 38 36 35 34 32 31 29 27 26 26 26 25 25 24 24 23 23 23 22 22 21 21 21 20 20 19 18 17 16 16 15 13 12 11 10 9 9 8 8 8 7 7 7 7 7 7 7 7
2 5 8 7 5 4 8 7 7 6 3 3 4 5 6 4 2 6 6 8 12 7 8 13 14 14 11 9 11 13 13 15 18 21 23 25 27 29 31 32 32 31 30 34 40 42 42 42 41 40 39 37 36 35 33 30 29 29 29 28 27 27 26 26 26 25 24 24 23 23 24 23 23 22 21 20 19 18 16 15 14 13 12 11 10 9 9 9 8 8 7 7 7 6 6 6 6
3 5 6 7 7 7 7 4 5 4 2 5 5 5 3 4 7 6 8 14 16 7 7 11 12 13 9 9 11 12 13 15 17 23 27 28 30 32 33 33 33 33 34 37 40 40 42 43 42 41 41 40 38 36 34 32 31 31 30 30 30 29 29 28 28 27 26 26 25 25 26 26 25 24 23 22 20 19 17 16 15 13 12 11 11 9 9 9 8 7 7 6 6 6 5 6 6
4 5 5 6 7 9 9 6 5 3 6 8 3 5 5 9 9 1 6 19 17 9 8 9 10 8 6 9 12 15 16 17 21 29 33 34 37 40 39 36 36 34 33 36 36 38 42 44 44 43 43 42 41 39 37 35 33 32 32 32 31 31 31 31 30 29 28 28 27 27 27 27 26 25 25 23 21 19 18 16 15 14 13 11 11 10 9 8 8 7 6 6 5 5 5 5 5
5 8 6 4 4 8 10 8 7 7 7 6 3 8 12 13 6 4 15 23 15 9 10 11 8 5 7 10 13 14 14 16 21 27 30 33 36 36 35 34 31 31 35 37 37 39 43 44 45 45 45 44 43 41 39 37 36 34 34 34 33 33 32 32 31 31 30 30 30 29 29 28 27 26 25 24 22 20 19 17 16 14 13 12 11 10 9 8 7 6 5 5 5 4 4 4 5
7 8 5 4 6 8 8 8 8 7 5 4 3 12 16 9 2 8 21 21 12 8 10 9 7 7 8 10 11 13 13 15 18 23 28 31 30 29 32 33 31 35 40 39 39 41 42 43 45 48 47 46 45 43 42 40 38 37 37 36 35 35 34 33 32 32 32 32 32 32 31 29 28 27 26 24 22 21 20 18 16 15 13 12 10 10 9 7 6 6 5 4 4 4 4 4 5
5 5 6 6 8 8 6 7 7 4 5 7 8 15 16 5 2 10 18 9 1 3 6 6 6 9 10 9 10 11 13 17 21 22 22 23 25 29 32 32 36 40 39 37 41 42 41 42 46 48 48 47 46 45 44 42 41 40 39 38 37 36 36 35 35 35 34 34 34 33 32 30 28 27 26 24 23 22 21 19 17 16 14 12 11 10 8 7 6 5 4 3 3 3 4 4 5
2 2 7 9 7 9 9 8 7 3 5 9 11 12 13 4 3 13 20 7 2 5 8 6 6 9 10 10 10 9 11 19 21 18 17 21 28 33 33 36 42 41 39 42 43 41 40 43 46 47 48 47 46 46 46 44 43 42 41 40 39 38 37 37 37 36 36 35 35 35 33 31 29 28 26 25 24 22 21 20 18 16 14 13 11 10 8 7 5 4 4 3 2 2 3 4 4
3 2 6 12 7 10 14 9 6 6 5 6 9 5 8 6 10 17 21 11 2 7 11 10 9 9 9 9 9 8 11 16 15 17 24 30 34 36 38 44 45 42 43 44 39 39 42 44 44 46 47 47 48 48 47 46 45 43 43 42 41 40 39 39 39 38 37 36 36 35 34 31 30 28 27 25 24 23 21 20 18 17 15 13 12 10 8 7 5 4 3 2 1 2 2 3 4
5 2 1 9 8 9 11 1 1 5 5 6 7 4 7 10 17 18 16 10 4 7 12 13 9 8 8 8 8 9 11 12 14 23 32 35 35 36 40 44 43 42 43 38 37 41 44 43 44 44 46 48 49 48 48 47 46 45 44 43 42 42 41 40 40 39 38 37 37 36 34 32 31 29 28 26 25 23 22 21 19 18 16 14 12 11 9 7 6 4 3 2 1 0 2 3 4
4 3 1 3 3 8 8 3 3 3 4 7 6 6 9 12 19 17 11 6 5 8 13 13 10 8 8 8 8 10 12 13 19 29 34 35 36 37 40 42 40 41 39 37 42 45 43 43 43 44 46 48 49 49 49 48 47 46 45 45 44 43 42 42 41 40 39 39 37 36 35 33 32 31 29 28 26 25 23 22 21 19 17 15 13 12 10 8 7 5 4 3 2 1 2 4 5
2 3 4 2 3 7 12 5 5 8 5 4 7 6 8 11 18 17 8 3 6 9 12 12 11 10 9 8 8 10 11 12 19 27 32 36 37 37 40 41 39 41 42 43 45 42 41 43 43 44 46 48 49 50 50 48 47 47 46 46 45 44 43 43 42 41 40 40 39 38 36 35 33 32 31 29 28 26 25 23 21 20 18 16 15 13 11 9 8 7 6 4 3 2 2 3 5
2 2 5 5 5 4 8 10 7 11 6 2 7 7 6 8 12 14 6 3 7 8 12 12 12 12 10 9 7 9 10 10 13 21 30 35 37 39 41 41 41 43 45 46 44 41 42 44 44 45 47 49 51 50 49 48 47 47 46 46 45 45 44 44 43 42 41 41 40 39 38 36 35 33 32 31 29 27 26 24 23 21 19 17 16 14 12 11 9 8 6 5 4 3 2 3 5
3 2 4 5 7 5 4 9 7 4 5 6 8 9 11 12 10 12 10 5 6 8 12 13 11 10 9 8 8 9 9 11 12 16 27 33 36 40 41 41 42 43 44 44 44 44 44 44 45 46 47 48 48 48 47 46 46 45 44 44 45 45 45 45 44 43 43 42 42 41 39 38 36 35 34 32 31 29 27 25 24 23 21 19 17 15 14 12 10 9 7 6 4 3 3 4 5
7 5 5 3 5 7 6 8 6 2 4 7 5 9 15 16 13 13 14 12 10 10 13 13 12 11 10 9 10 12 11 13 15 18 26 31 33 37 38 39 40 40 41 42 42 43 42 42 43 45 45 45 45 45 44 43 42 41 41 41 41 43 44 44 44 44 44 44 43 42 41 39 38 37 35 34 32 30 29 27 26 24 22 20 19 17 15 14 12 11 9 7 5 4 3 4 5
10 6 5 6 6 7 8 11 9 5 8 7 7 14 17 16 15 15 15 15 15 15 14 14 13 12 12 11 12 14 15 16 18 22 26 28 31 33 34 36 38 38 39 38 39 40 40 40 41 42 43 43 43 41 40 40 39 38 38 38 40 42 43 44 45 45 45 45 45 43 42 41 39 38 37 36 34 32 31 29 28 26 24 22 21 19 17 15 14 12 10 8 6 4 3 3 5
5 3 6 7 7 10 10 12 11 3 5 8 9 17 19 15 16 16 15 14 15 18 17 16 14 13 13 13 16 17 17 18 19 22 24 25 29 30 29 32 33 34 35 36 37 39 42 42 42 43 44 44 44 43 43 43 42 39 38 40 42 43 44 45 45 47 47 47 46 44 44 42 41 40 39 38 35 34 32 31 29 27 25 24 21 19 17 16 15 13 12 9 7 5 3 2 4
6 6 8 7 7 13 13 13 14 3 2 8 8 16 21 16 16 15 14 13 15 19 20 19 17 15 13 14 18 19 16 15 16 19 21 21 23 25 26 28 30 33 35 37 40 43 44 44 44 44 44 44 46 47 47 47 47 46 45 45 45 44 46 47 47 48 48 46 46 45 44 44 43 42 40 39 37 36 34 33 31 29 27 25 22 19 18 18 17 15 13 11 9 6 4 1 3
7 5 6 7 7 11 12 11 12 3 2 7 8 14 18 15 15 15 15 17 15 17 20 20 18 15 14 16 18 19 17 16 16 17 19 16 17 20 23 26 31 35 37 39 41 42 42 43 43 43 43 46 47 47 47 47 48 48 46 45 45 43 44 46 46 45 45 45 45 45 45 44 44 43 41 40 39 37 35 34 33 31 29 26 24 23 21 20 18 17 14 12 11 8 5 2 1
6 6 6 8 7 7 9 6 6 3 3 7 9 14 15 13 14 13 17 20 16 16 20 19 17 16 17 19 19 17 18 19 18 19 17 10 11 16 21 25 30 32 33 36 38 38 40 43 44 43 45 46 47 47 47 46 44 43 40 38 39 38 38 40 39 38 41 43 44 45 46 45 45 44 42 41 40 38 36 35 34 32 30 28 27 26 24 23 20 18 16 14 12 10 8 5 3
7 9 8 10 12 12 11 5 6 6 5 6 8 14 13 9 12 12 13 16 14 13 16 17 17 17 17 19 20 18 19 20 19 20 16 7 8 14 21 25 27 29 32 36 39 40 42 44 45 45 45 45 46 47 46 43 40 38 35 30 30 31 29 31 34 35 39 43 45 46 47 46 45 44 43 42 41 39 37 36 35 33 31 29 28 27 25 24 21 20 18 16 14 11 10 7 6
9 8 12 18 17 13 12 8 7 6 5 4 4 9 11 5 10 10 8 8 11 9 11 15 18 18 15 16 19 17 16 17 17 18 16 9 7 11 17 23 25 29 35 38 39 41 42 42 43 43 43 43 44 45 45 43 41 41 39 34 32 30 28 31 38 41 43 45 46 46 46 46 46 45 44 43 41 40 38 37 36 34 32 30 29 27 25 24 22 21 19 17 15 12 12 10 9
9 6 12 16 13 9 11 9 4 2 4 3 3 1 10 6 6 10 8 8 11 9 9 15 17 15 13 14 16 14 13 12 13 15 15 12 9 9 13 20 25 30 34 34 35 37 39 39 40 42 42 42 43 44 45 44 42 42 43 41 39 37 35 37 44 44 44 45 45 44 45 46 46 46 45 44 42 41 40 38 37 34 32 31 30 29 27 25 24 22 20 18 16 14 13 12 11
8 4 8 9 8 9 8 6 5 4 3 3 1 4 7 14 7 8 11 10 9 11 13 16 16 14 14 13 13 14 14 12 10 11 13 13 10 9 12 19 27 31 30 30 32 36 38 38 39 41 41 41 43 44 46 47 45 44 44 42 40 41 41 41 41 40 40 42 42 43 44 46 47 46 46 45 44 42 41 40 37 35 33 32 31 30 28 26 25 23 21 19 18 16 15 13 13
7 2 4 6 6 6 5 5 5 1 3 3 3 5 2 15 7 4 5 7 8 12 15 17 16 14 14 12 12 15 15 13 11 11 14 12 9 10 15 20 26 29 28 30 34 36 36 37 37 39 40 41 42 44 47 48 47 46 45 43 41 41 41 39 37 37 37 38 40 42 43 44 46 46 46 45 44 44 42 41 38 36 35 34 33 31 29 27 26 25 24 22 21 18 16 14 13
4 6 5 4 4 2 4 3 3 2 4 4 6 6 3 13 8 5 4 3 7 12 13 13 13 12 13 11 13 15 12 11 11 11 12 10 8 12 17 20 23 26 28 30 31 32 34 35 36 39 40 41 42 44 47 48 47 46 45 45 43 41 39 35 33 34 36 37 39 41 42 43 45 46 46 45 45 44 43 42 40 38 37 35 34 32 30 29 28 27 25 24 22 19 18 16 13
3 5 5 6 5 4 4 1 3 1 7 6 11 13 8 8 6 4 4 4 6 8 7 8 10 12 13 11 12 13 11 11 10 8 8 7 7 10 13 16 18 20 23 25 27 31 33 35 36 38 40 40 42 44 46 48 48 47 47 47 45 43 39 36 34 35 37 38 39 40 41 41 43 45 46 46 45 45 44 43 41 40 38 37 36 34 33 31 30 28 26 24 22 20 19 17 15
4 3 3 3 4 4 4 4 4 1 8 5 11 13 11 10 6 1 4 6 4 6 7 8 11 12 12 10 11 11 11 11 8 6 6 5 5 6 7 11 13 16 20 24 27 30 32 34 36 37 38 40 42 44 46 47 47 48 48 47 46 44 41 40 39 38 39 40 40 39 38 38 40 42 44 46 47 46 45 44 42 41 40 39 38 36 34 32 31 30 28 26 24 22 20 19 18
4 3 3 1 4 3 3 3 1 4 8 5 6 7 7 13 9 4 10 11 9 9 8 9 10 11 11 11 11 10 8 10 8 6 5 4 5 6 5 7 11 15 20 24 27 30 33 35 37 38 40 41 42 43 45 46 47 49 48 46 46 43 41 42 42 41 41 41 40 39 39 40 40 42 44 47 48 48 46 46 45 44 43 41 40 37 35 34 32 31 30 28 26 25 23 21 20
6 5 6 4 2 2 4 3 2 5 7 3 2 4 5 9 7 8 14 15 12 9 8 11 11 11 11 10 10 10 10 11 9 4 4 4 5 5 4 6 10 13 18 22 27 31 33 34 37 39 39 40 42 43 44 45 48 50 49 47 45 42 42 43 42 41 41 41 41 41 43 43 43 45 48 49 49 48 48 48 47 46 45 43 41 38 37 35 34 33 31 30 28 26 24 22 20
7 6 6 5 6 4 4 4 5 8 6 3 1 4 4 4 3 7 11 9 8 6 7 8 8 9 9 9 10 12 12 13 9 1 2 5 5 5 5 7 11 13 16 21 25 28 31 33 37 38 38 40 42 42 43 46 48 48 46 45 44 44 44 43 42 42 41 42 42 43 43 44 45 46 47 47 48 48 49 48 47 47 46 44 42 40 39 37 35 34 32 31 29 27 25 23 22
4 4 4 5 6 5 4 7 7 5 4 4 2 4 5 4 5 7 8 9 9 8 6 6 8 9 8 8 11 12 12 12 9 6 4 6 6 5 6 9 12 14 16 21 26 30 32 34 36 38 39 40 42 43 45 47 46 43 43 44 44 44 43 42 43 44 44 44 44 44 44 45 45 44 44 45 46 47 49 49 48 48 47 45 44 42 41 39 37 36 34 33 31 28 27 25 24
2 3 4 4 3 6 5 7 4 0 4 6 4 7 7 5 9 7 2 5 8 8 8 8 9 9 8 9 10 10 11 10 9 8 6 7 7 7 8 9 12 14 18 22 26 30 34 34 35 36 35 36 40 44 46 46 43 42 43 44 44 44 44 46 47 46 45 43 42 43 43 43 43 44 44 44 45 46 47 48 48 47 47 46 45 43 42 41 39 38 36 35 33 31 29 27 25
5 3 5 1 3 2 3 2 1 1 8 7 5 13 11 5 8 6 7 8 8 7 8 7 8 8 7 9 9 9 10 10 10 9 7 7 7 7 6 7 10 14 17 20 21 22 25 28 32 33 33 36 41 44 43 42 42 43 44 45 45 46 46 47 46 43 40 39 40 42 42 42 44 44 43 43 44 45 45 46 47 46 46 46 45 44 43 41 40 39 38 36 34 32 30 28 27
5 3 2 2 1 3 2 3 3 6 10 6 7 15 13 7 8 7 7 9 9 9 6 5 8 8 7 7 8 9 10 9 9 9 7 6 6 5 5 6 10 14 16 17 18 19 21 24 26 30 34 37 37 37 38 40 42 43 44 45 46 46 45 45 43 40 38 39 42 43 43 44 44 43 43 43 44 44 45 45 46 46 45 45 45 44 43 42 41 40 39 37 35 33 32 30 28
1 1 3 1 2 3 3 3 2 5 9 8 8 11 9 7 7 5 8 9 7 8 7 4 6 8 7 7 7 8 8 8 8 9 8 6 5 5 6 9 12 13 15 16 17 20 22 24 25 28 33 34 33 34 37 39 41 43 43 43 44 46 46 45 42 39 39 41 43 44 44 44 43 43 43 44 44 45 45 46 46 46 45 45 45 44 44 43 42 41 40 38 37 35 33 32 30
1 2 3 3 2 1 1 2 1 3 7 8 8 9 8 6 4 5 7 7 6 5 5 5 6 7 7 7 7 7 8 9 9 9 9 8 5 6 7 8 9 9 11 14 16 19 22 24 28 30 30 31 34 35 37 39 41 41 41 42 44 45 44 42 40 40 41 42 42 43 44 44 43 43 44 44 45 45 46 46 46 46 46 45 45 45 45 44 42 41 40 39 38 37 35 33 31
4 4 4 5 5 3 5 6 4 4 5 7 9 10 7 4 5 5 5 5 7 7 5 7 7 8 8 7 6 6 7 9 9 8 8 8 6 5 4 4 6 8 11 13 16 20 23 26 30 31 30 32 36 38 39 41 40 39 40 41 41 40 40 41 41 41 42 43 43 43 43 42 42 43 44 45 45 45 45 46 46 46 45 45 46 46 46 46 44 43 41 40 39 38 36 34 32
Wind_Direction
304 313 290 299 325 337 4 52 71 320 70 293 274 221 263 237 249 271 265 264 187 242 209 144 170 153 127 169 188 187 169 172 170 148 213 225 145 162 166 168 168 168 169 170 171 169 167 167 170 171 169 168 168 167 164 167 169 165 161 160 157 157 157 156 157 156 153 149 152 157 151 145 146 145 142 135 127 112 107 114 111 105 106 105 111 120 114 108 108 142 206 204 54 34 351 355 346
321 304 324 311 353 36 254 67 95 327 36 309 282 184 261 300 290 238 230 207 207 249 114 121 127 104 81 72 135 147 201 213 183 165 236 154 146 170 170 171 171 171 172 172 175 174 174 174 177 178 177 178 178 176 172 174 176 175 174 172 169 168 167 167 169 167 164 162 165 164 157 155 152 147 154 143 128 129 136 139 124 108 102 105 136 172 182 186 239 275 273 294 5 355 318 323 316
340 153 356 289 18 44 72 41 101 29 46 270 278 235 270 298 234 236 228 212 232 264 31 146 136 87 81 21 83 159 231 257 191 180 257 166 169 181 175 174 175 175 175 176 178 179 180 179 178 177 181 183 182 182 181 181 180 181 183 179 177 176 173 172 173 172 170 170 174 170 160 158 155 159 165 142 145 174 177 167 149 121 103 107 147 177 192 220 252 275 279 285 328 294 292 298 296
63 84 5 76 64 28 66 36 147 127 206 241 273 262 245 226 238 253 249 242 256 309 18 311 168 185 127 239 240 189 246 264 205 179 173 191 189 179 175 174 178 180 180 180 182 182 183 181 178 176 181 184 182 183 185 186 183 183 182 177 179 180 177 174 174 174 173 174 181 181 172 172 170 166 155 149 183 200 192 182 166 143 123 120 133 135 133 156 171 191 213 165 234 250 244 247 266
66 49 12 60 96 32 94 65 113 127 218 198 227 269 240 223 249 263 268 280 276 237 269 65 268 268 130 227 201 194 228 243 218 194 185 198 190 176 175 175 178 181 183 184 185 185 186 185 181 178 180 182 182 182 183 183 181 180 176 171 174 173 173 173 171 170 171 173 178 180 175 170 161 151 155 178 200 200 194 189 179 165 151 140 134 136 132 135 149 140 126 103 115 135 161 189 237
124 77 26 52 89 108 116 198 183 211 228 170 199 265 255 235 240 246 277 306 295 242 221 204 249 235 276 264 203 214 211 125 170 199 207 198 184 177 176 176 180 181 183 185 186 187 188 187 183 178 179 181 183 180 179 178 176 175 174 174 175 172 171 170 166 164 163 163 164 163 158 154 152 160 179 190 189 184 183 179 177 173 165 158 142 138 137 133 135 123 116 105 108 113 114 107 99
132 131 18 61 58 29 119 208 212 235 239 177 195 254 267 262 221 211 275 310 300 266 197 202 195 125 246 287 258 243 219 211 150 191 214 193 180 176 177 179 182 182 183 185 185 187 187 186 181 177 179 181 181 180 178 176 176 178 181 181 179 176 174 174 167 159 159 161 162 163 163 166 173 182 187 180 173 170 168 165 166 167 163 160 146 134 130 129 125 115 112 109 110 106 100 91 82
87 131 13 98 97 5 117 237 235 220 245 216 219 239 260 265 178 172 218 205 218 254 213 219 148 141 262 340 269 258 226 230 225 215 205 187 180 176 180 182 182 183 184 184 183 186 187 185 179 178 180 182 182 180 180 177 180 184 185 181 177 175 172 174 171 166 170 175 177 179 181 183 186 185 182 177 174 170 167 168 165 164 160 155 150 140 126 121 119 113 109 107 106 102 97 91 86
54 48 41 102 156 315 21 274 261 236 253 254 254 246 260 252 166 173 200 241 270 247 251 228 155 198 273 338 263 284 257 232 230 244 199 184 182 178 183 184 185 184 184 186 185 187 189 187 179 180 182 182 183 181 181 179 184 187 184 181 180 180 176 179 183 183 185 187 189 188 189 188 186 184 183 181 176 171 167 165 160 159 155 150 146 137 127 120 116 113 110 108 108 104 100 94 88
37 25 146 105 130 274 301 265 248 256 249 250 264 252 258 228 174 186 185 240 256 235 268 202 156 231 252 240 256 285 247 225 223 233 188 182 184 182 185 186 189 187 185 187 188 190 191 189 179 181 184 182 184 182 183 181 185 187 184 184 185 187 186 189 190 191 191 193 195 194 195 190 187 184 179 175 166 161 157 154 153 150 148 145 140 134 127 121 117 117 116 114 112 108 104 94 89
32 350 104 102 89 227 254 253 255 262 266 294 287 261 247 196 159 186 185 256 238 222 275 129 191 236 191 276 255 245 236 211 213 213 180 180 186 186 187 187 191 192 190 189 190 192 192 191 183 184 186 184 185 182 182 181 185 187 186 187 188 190 190 192 192 192 193 193 194 192 191 185 181 176 170 165 159 155 151 148 147 145 144 142 137 132 125 121 121 122 122 119 113 106 101 92 86
83 332 60 110 178 214 220 245 269 276 294 304 276 280 230 149 143 193 198 242 230 222 246 184 197 169 144 285 259 274 263 207 205 204 180 181 187 187 189 188 190 196 195 193 193 193 195 194 188 187 187 187 186 183 184 184 189 190 190 191 191 193 193 194 194 192 191 188 187 184 181 177 173 169 164 160 156 153 150 147 144 142 140 137 134 131 128 129 128 126 125 118 112 105 101 94 86
121 135 87 148 196 192 208 231 279 306 313 263 242 297 109 139 187 208 179 214 220 199 248 213 166 124 192 260 279 309 270 206 193 191 182 182 188 188 190 190 191 197 199 199 198 197 199 197 193 190 188 190 188 188 191 191 194 194 195 196 196 197 196 196 194 190 186 181 179 177 174 171 168 165 161 158 154 151 149 146 144 141 138 136 136 135 137 137 134 129 125 120 116 112 108 103 97
138 147 115 212 252 132 206 244 283 291 288 260 259 291 161 176 215 185 142 205 231 196 242 209 146 99 235 274 304 301 244 198 184 184 182 182 188 188 192 193 193 198 201 203 203 203 201 199 197 193 191 192 192 194 197 197 199 200 199 200 200 199 197 196 192 187 182 179 178 175 173 170 167 164 160 157 153 149 147 144 143 143 141 140 141 142 144 141 136 131 127 126 122 119 116 111 106
148 130 95 140 323 336 219 230 245 177 254 261 272 269 209 251 155 137 181 210 244 217 246 187 158 196 208 192 236 276 237 187 178 179 179 181 187 189 194 195 197 201 203 206 207 207 204 202 199 197 196 195 197 199 200 201 202 203 202 202 200 199 196 194 189 186 183 182 180 177 174 171 168 166 162 159 156 153 149 146 146 145 145 145 146 145 144 140 135 132 131 129 127 126 124 121 116
119 106 72 1 264 290 225 218 195 163 254 247 263 331 226 268 161 151 229 193 269 261 156 203 189 206 186 181 221 296 231 177 174 175 176 179 185 190 196 197 201 203 206 209 209 209 206 204 202 200 200 199 201 202 203 204 205 205 204 203 200 198 195 192 189 187 186 183 181 178 176 173 170 167 165 163 160 158 156 154 152 150 151 149 147 143 138 135 133 131 129 127 127 125 123 124 121
76 86 76 294 220 215 212 207 195 198 261 268 300 324 175 285 277 211 255 144 251 264 241 232 227 204 189 217 288 313 174 169 169 170 171 177 182 188 195 199 202 205 207 209 211 210 208 208 206 204 202 203 204 204 205 205 206 207 206 204 200 197 195 193 192 189 187 183 181 179 176 174 171 169 168 168 166 165 165 162 158 155 155 151 147 143 140 138 136 133 129 126 123 120 118 117 115
74 95 147 237 205 202 195 194 203 200 265 277 308 299 184 270 294 296 343 278 257 264 271 274 283 265 225 282 313 156 163 166 167 168 170 175 180 186 194 199 201 205 208 209 212 211 211 210 209 207 205 205 206 206 207 207 207 207 206 204 200 198 196 196 194 190 187 184 183 181 179 178 175 174 172 173 172 171 171 169 166 163 161 159 155 152 150 147 142 137 133 130 125 121 121 118 113
131 129 182 231 205 215 202 193 211 210 252 279 293 281 189 233 265 35 271 264 267 261 270 295 284 268 261 288 146 158 162 166 170 172 174 178 184 190 195 199 202 206 208 210 212 212 212 212 211 210 208 207 207 208 208 208 209 208 206 204 202 200 198 198 195 191 189 187 186 184 182 181 179 178 177 178 177 175 175 174 170 167 164 160 157 154 150 145 141 139 135 132 129 126 123 117 111
177 144 224 244 216 235 236 215 227 230 257 292 285 273 188 239 240 129 242 263 262 238 244 240 252 254 242 193 154 166 167 172 178 180 184 188 192 194 195 197 202 208 210 211 211 211 212 213 213 211 210 209 209 209 209 209 209 209 207 206 204 201 200 198 195 193 192 190 189 187 185 184 182 181 180 180 179 177 174 171 167 162 158 152 150 149 145 141 138 137 134 132 129 125 120 112 105
180 160 213 236 194 237 247 222 233 246 238 244 271 333 288 259 204 196 234 276 270 236 222 219 226 241 230 193 177 176 174 181 186 190 194 197 200 202 203 202 205 209 211 212 212 212 213 213 214 212 211 210 211 211 210 209 209 208 207 206 205 203 201 199 197 196 194 193 192 190 188 186 184 183 182 180 178 176 171 167 162 156 154 150 149 149 145 141 139 136 134 131 126 120 114 107 102
171 212 225 227 171 234 251 218 225 232 194 228 279 302 279 264 212 219 208 244 261 227 204 217 222 234 219 187 185 180 182 190 192 198 201 203 205 207 210 210 211 212 212 214 214 214 214 214 214 212 211 211 213 214 212 211 209 208 207 205 204 203 202 200 199 198 196 196 194 193 191 188 186 183 181 179 176 174 170 165 160 157 156 153 150 151 146 142 141 138 134 128 120 114 107 99 94
225 250 245 236 204 232 262 233 218 199 207 260 262 279 288 294 275 230 191 234 251 234 201 212 223 234 213 167 171 181 192 196 198 203 203 204 208 210 211 212 212 212 213 215 216 215 214 214 214 213 212 212 214 215 214 213 211 210 208 206 205 203 202 202 202 200 199 198 197 196 193 190 186 183 181 179 176 173 169 164 162 160 159 155 150 150 147 143 142 137 133 124 114 106 96 87 80
230 257 258 248 222 230 257 263 257 247 252 254 262 319 293 262 273 308 227 248 253 252 237 228 235 228 179 158 176 191 196 198 204 206 205 206 209 212 212 211 213 213 214 217 217 216 216 215 214 214 214 213 214 215 215 214 212 211 209 208 207 206 204 204 204 202 201 200 199 199 196 193 187 184 183 180 176 171 169 167 165 163 161 157 151 149 148 144 141 135 129 120 112 101 90 81 70
222 237 250 257 242 241 259 270 267 261 254 251 277 290 265 248 270 322 267 264 266 252 243 241 236 193 169 187 194 198 202 206 212 212 212 214 215 216 216 215 214 215 218 218 216 217 218 216 215 215 215 215 215 215 215 214 213 211 210 210 208 208 207 207 206 204 202 201 201 200 199 196 190 187 184 180 176 171 171 171 168 166 163 160 154 151 148 145 140 134 127 118 109 99 85 72 61
218 225 252 263 269 268 272 273 254 243 243 206 219 268 267 256 255 277 264 266 278 249 239 246 221 196 201 207 202 201 207 210 215 214 216 219 219 221 221 218 216 217 220 219 217 218 217 216 216 216 216 215 215 215 216 215 213 211 210 211 210 209 209 208 207 206 204 203 203 201 201 197 193 190 186 182 178 174 174 174 171 169 168 164 158 155 150 147 142 132 126 114 103 95 76 63 54
201 220 265 257 270 281 256 256 252 228 243 201 201 259 271 275 148 266 266 255 302 249 247 255 214 217 220 214 213 206 211 217 215 213 217 220 219 223 223 218 219 221 221 219 220 219 216 216 217 217 216 215 215 215 216 215 213 212 211 211 211 211 210 209 208 208 206 205 204 203 201 198 196 194 189 185 180 178 177 177 175 173 174 169 163 164 159 152 146 136 125 111 96 79 63 54 44
216 258 299 279 290 297 260 253 257 209 250 208 189 251 277 302 180 248 262 245 97 290 277 262 222 232 229 219 223 210 218 226 217 211 214 216 217 220 220 218 220 221 220 221 221 218 216 217 217 216 215 214 214 215 216 215 214 213 212 212 212 212 211 210 209 209 208 207 206 205 203 198 198 197 193 189 185 183 182 180 179 178 179 175 170 173 168 160 152 142 132 113 83 59 45 33 28
297 19 325 294 327 311 276 268 241 186 225 189 157 256 279 258 231 240 256 257 273 288 280 264 235 237 237 226 226 220 227 227 213 214 221 220 219 219 219 222 221 219 221 223 220 217 218 218 216 215 214 213 214 215 215 215 215 214 213 213 213 212 211 211 210 210 209 208 207 206 204 199 199 199 196 193 190 188 186 185 183 182 183 181 178 178 176 171 161 152 142 121 83 49 23 15 16
299 15 353 297 337 307 278 310 128 176 201 168 143 266 260 250 254 249 257 264 262 271 270 266 252 240 239 232 229 231 233 223 213 221 225 225 225 222 224 226 223 221 223 220 218 220 220 217 216 214 212 213 213 214 214 214 215 214 213 213 213 213 212 211 212 211 210 209 209 207 205 202 200 201 199 197 194 192 190 189 188 186 185 185 183 182 182 178 170 167 157 147 146 329 340 355 358
304 303 280 303 312 279 286 65 106 233 223 158 155 254 252 258 266 260 260 253 217 242 260 264 263 253 241 232 229 238 237 224 224 228 229 229 229 226 227 229 225 223 222 218 221 222 220 217 214 213 212 213 212 213 213 214 214 214 213 213 213 213 213 212 212 212 210 210 210 208 206 204 201 202 202 200 198 196 194 193 191 190 189 188 186 185 186 182 179 178 174 179 202 259 317 335 347
358 278 275 296 216 267 301 306 197 231 263 133 159 242 257 257 266 269 273 217 198 233 255 261 265 263 255 244 230 239 246 236 234 236 236 234 232 230 229 230 226 223 222 221 222 220 217 216 214 212 211 211 211 212 213 213 213 213 213 213 213 213 213 213 213 212 211 211 211 210 207 206 203 203 203 203 202 199 198 196 193 193 192 191 190 189 187 186 186 185 184 192 207 245 301 325 338
337 222 249 265 248 272 312 300 236 218 236 173 200 233 265 257 260 273 287 198 204 238 259 260 262 263 261 260 247 244 253 252 245 241 239 236 234 233 230 229 227 225 224 222 220 217 216 216 214 213 212 212 212 211 211 211 212 213 213 212 212 213 213 213 213 213 213 212 212 211 209 207 205 204 204 205 205 203 201 199 196 195 195 194 193 192 189 188 190 192 192 192 208 244 275 314 331
283 222 236 249 250 255 296 296 285 212 193 212 229 238 253 259 264 282 294 265 222 236 258 261 260 264 262 265 265 257 253 250 248 242 240 237 235 235 232 230 228 226 225 222 219 218 217 215 213 213 213 212 210 209 208 209 210 212 212 212 212 212 214 214 214 214 214 214 213 213 211 209 207 206 205 205 206 206 203 201 200 198 197 196 195 194 192 192 193 197 199 197 209 241 275 312 325
235 221 237 254 244 243 253 267 284 322 231 217 243 256 255 265 271 277 281 276 262 249 256 263 263 264 264 264 265 261 257 253 249 244 242 240 238 237 232 229 228 225 224 222 219 218 217 214 212 212 211 209 208 207 206 206 208 209 210 210 211 212 213 215 215 216 216 215 214 214 212 211 209 207 207 207 206 206 204 202 202 200 199 199 197 196 195 195 196 199 201 200 205 228 278 311 322
230 218 230 253 259 249 238 249 257 284 284 259 254 262 261 267 269 268 272 273 272 266 261 264 264 264 262 260 259 258 258 257 256 252 247 243 241 239 234 228 226 224 222 221 217 215 214 212 210 210 209 207 205 203 201 202 203 205 206 207 209 211 213 214 216 217 217 216 216 215 214 212 211 209 208 208 207 207 205 204 203 203 202 201 202 200 199 199 199 199 199 198 203 214 256 300 321
258 244 246 251 262 265 253 259 263 239 283 265 244 264 269 267 267 267 268 270 274 274 269 264 261 260 260 258 258 257 255 255 262 264 255 245 241 239 234 227 222 220 220 218 215 213 213 211 209 208 207 204 201 199 198 198 199 199 201 204 207 209 211 213 215 217 217 218 217 216 215 214 212 210 209 209 208 208 207 206 204 204 203 204 205 204 201 200 198 199 197 192 196 205 221 285 329
270 251 265 265 251 264 263 265 272 234 224 260 244 267 272 265 266 268 268 265 263 268 270 268 265 260 260 260 259 259 257 258 264 267 261 247 238 233 227 221 214 213 214 214 214 213 212 211 209 208 204 201 202 201 199 199 200 200 202 205 207 208 210 211 214 216 216 217 217 217 217 215 214 212 211 210 209 209 208 207 207 206 206 205 202 200 200 201 199 200 198 191 187 192 201 213 356
244 244 271 270 252 273 272 258 273 270 200 270 265 265 270 266 263 261 261 259 250 255 262 265 267 264 261 259 259 261 262 264 261 259 261 246 227 222 216 213 212 213 213 213 214 213 209 208 208 207 203 201 202 202 200 201 202 203 204 206 206 206 210 212 214 215 215 216 217 218 218 217 215 214 212 211 211 211 210 210 209 209 208 205 201 200 200 202 202 200 199 197 190 182 182 180 63
218 220 246 263 257 268 265 253 298 313 220 272 283 274 273 265 259 251 250 254 250 250 257 263 264 258 256 255 257 260 261 264 262 259 262 244 210 211 208 209 212 212 212 212 211 209 207 207 207 205 204 202 201 201 202 202 202 202 204 206 206 206 210 212 213 215 215 216 217 218 218 218 216 215 214 213 213 213 213 213 212 211 209 207 206 205 205 204 204 202 201 201 197 185 177 176 176
219 210 224 250 251 246 252 275 338 322 265 277 296 291 281 239 236 245 240 249 253 249 255 263 263 254 252 256 257 255 254 260 263 264 265 239 197 210 209 210 211 209 211 212 210 208 207 208 207 205 203 202 200 201 201 200 198 197 198 201 202 203 207 207 208 212 215 216 217 217 217 217 217 217 216 215 215 215 215 215 215 214 211 208 208 210 210 207 205 205 205 204 203 196 187 178 175
249 216 215 237 249 254 263 290 338 334 296 307 348 311 292 199 194 235 239 244 251 247 248 254 259 258 253 256 259 256 252 255 260 266 269 250 212 213 212 211 209 210 214 214 211 210 209 208 206 204 202 200 200 200 198 196 195 194 192 191 191 194 198 202 206 210 212 213 215 216 216 216 217 218 217 216 216 216 217 216 216 215 212 210 210 210 210 208 206 206 206 205 203 200 194 183 175
268 229 211 230 247 258 262 274 305 280 258 296 58 322 289 280 199 220 228 233 245 248 246 248 253 257 253 252 261 264 261 257 256 262 267 257 231 211 212 212 209 214 218 216 212 210 209 207 204 202 201 200 199 198 197 196 195 194 195 195 195 195 198 205 211 212 212 213 214 215 216 216 217 218 218 217 217 217 218 218 217 215 214 213 211 210 208 208 208 207 206 204 203 201 197 189 181
265 234 197 207 220 235 236 232 230 234 272 304 118 140 277 286 256 196 208 218 242 253 249 251 253 255 256 256 262 267 264 258 255 258 259 253 236 219 217 215 215 219 220 214 211 210 208 205 203 200 199 199 198 197 197 197 196 196 197 199 201 202 205 209 212 212 213 213 213 215 216 216 217 218 218 218 217 218 218 218 217 216 215 214 213 212 209 208 207 206 204 202 203 203 200 196 188
256 186 163 173 190 211 180 181 211 250 346 300 212 136 250 279 277 118 186 207 231 248 243 247 252 255 260 264 265 264 263 261 253 251 257 254 238 228 226 222 221 221 218 213 211 208 205 203 201 199 198 199 198 197 198 199 199 199 199 200 203 207 210 212 212 210 211 212 212 214 215 215 216 216 218 218 218 219 218 218 217 216 215 214 214 213 210 209 208 207 205 204 204 202 199 200 197
228 107 91 71 76 82 104 151 159 89 304 248 195 163 215 276 285 79 87 184 221 241 241 248 255 261 265 266 266 267 269 268 254 246 255 256 242 236 233 227 223 219 216 213 209 204 201 199 197 197 198 198 198 198 199 200 201 201 201 202 204 207 209 210 210 209 209 211 211 212 213 213 214 214 216 217 218 219 219 218 218 217 216 215 214 213 210 209 209 210 210 209 208 203 199 201 200
139 99 58 34 26 29 54 52 86 65 278 232 184 184 191 270 288 120 160 215 218 232 244 259 261 261 264 262 264 269 271 270 271 268 263 259 256 248 234 225 219 214 210 206 202 199 197 195 194 196 197 198 199 199 200 201 201 202 204 205 206 207 206 205 205 206 206 207 209 210 211 211 213 214 214 216 217 219 219 218 218 217 217 216 215 214 212 210 210 210 210 209 208 206 204 201 198
122 104 68 24 333 6 24 352 51 191 267 231 185 185 188 233 260 172 255 270 243 226 227 244 254 258 264 266 265 267 267 269 282 293 284 280 272 254 228 221 213 201 197 196 196 194 193 193 193 194 197 199 200 200 201 202 202 205 207 208 209 209 206 205 206 206 205 206 208 208 208 209 211 212 214 215 216 217 217 217 217 217 216 216 216 215 213 212 211 210 209 208 207 205 204 203 201
116 114 129 135 312 342 346 313 97 217 260 253 185 178 208 243 256 269 274 275 255 232 221 231 246 257 263 266 267 273 279 281 283 278 271 264 248 239 218 213 208 197 192 191 191 190 190 192 192 194 197 199 199 200 202 203 204 207 209 210 211 210 209 209 210 209 209 208 208 206 206 207 208 210 212 214 215 216 215 216 216 216 216 216 216 215 214 212 212 211 209 208 208 206 205 205 206
157 156 160 165 203 249 256 257 263 259 266 279 168 168 248 274 271 234 241 256 259 246 232 236 241 249 259 269 282 292 293 289 286 253 222 239 253 258 238 215 213 208 198 191 190 190 189 191 194 196 198 199 200 201 202 204 207 210 210 211 212 211 211 213 213 213 212 211 209 209 209 209 209 211 213 214 215 215 215 216 217 217 217 216 216 215 214 213 212 212 211 210 209 208 207 207 207
185 167 145 176 190 195 220 223 250 265 274 303 198 180 224 265 261 223 232 265 285 264 244 251 257 260 272 290 295 293 288 285 297 334 212 257 271 269 251 226 219 215 205 196 194 193 192 193 195 197 198 199 200 202 203 206 210 211 211 212 212 212 213 214 215 215 215 214 213 212 212 212 213 214 215 215 216 215 216 216 217 217 217 216 215 214 213 213 212 211 211 211 210 208 207 207 207
221 133 119 218 202 172 218 236 235 255 291 289 238 219 232 241 264 258 253 267 271 268 281 298 286 273 278 284 277 277 277 281 308 351 338 302 288 262 241 227 219 213 209 204 199 197 197 197 198 200 201 200 200 202 205 209 211 211 213 214 214 214 214 215 216 217 217 216 215 214 215 216 216 216 216 216 216 216 216 216 216 216 217 216 215 214 213 212 211 210 210 209 209 207 207 207 208
198 134 189 233 149 147 217 253 253 42 270 261 243 256 272 300 291 283 291 282 276 286 291 280 276 281 283 276 272 282 293 301 316 327 316 297 285 267 245 231 220 211 210 213 210 205 202 199 200 202 203 202 203 205 207 209 210 211 214 216 216 216 215 216 217 218 217 216 216 217 217 217 217 217 217 216 216 216 216 216 215 215 216 216 215 214 214 212 211 210 209 209 208 207 206 208 209
133 178 222 205 64 139 180 238 294 233 246 251 255 264 274 292 282 307 10 338 308 283 271 274 292 296 288 286 293 299 298 299 300 297 287 274 272 277 275 260 242 227 220 221 224 223 218 210 204 202 203 206 208 208 209 209 209 211 214 216 217 217 218 219 219 219 217 215 216 217 217 217 218 218 217 216 216 216 216 215 215 215 215 215 214 214 213 212 211 210 210 210 209 206 206 207 209
139 205 244 105 189 241 161 177 221 233 243 245 243 259 269 252 250 284 310 296 285 274 280 323 315 296 287 292 295 291 287 289 294 294 287 279 283 304 311 277 255 246 238 232 229 231 233 228 217 209 208 211 213 212 211 212 212 213 215 217 218 219 220 221 221 220 218 217 218 217 217 217 218 217 216 215 215 214 214 214 214 215 214 214 213 213 212 211 211 210 209 209 209 207 206 207 208
70 291 320 36 188 203 185 190 191 228 248 252 240 247 259 249 234 236 251 248 250 273 296 319 293 287 288 283 282 293 298 299 302 302 305 314 312 292 273 258 251 247 245 241 235 232 232 232 229 222 216 214 216 217 215 215 216 216 217 218 219 220 221 222 221 220 220 220 220 219 217 217 217 216 215 214 214 213 213 213 213 213 213 213 212 211 211 211 210 210 210 209 208 207 206 207 207
186 242 271 271 248 240 264 245 172 220 250 255 248 244 246 256 231 200 230 237 212 222 259 266 266 274 278 275 284 305 313 311 312 311 308 311 293 267 267 270 265 255 247 243 242 242 236 231 230 229 225 218 217 219 218 218 219 219 220 221 221 221 220 220 221 221 221 222 222 221 220 218 216 215 215 213 213 213 213 212 212 212 212 212 211 210 210 210 209 209 210 209 208 206 206 207 207
176 206 237 245 241 259 276 257 218 211 245 250 256 258 250 270 272 228 206 217 206 203 239 275 291 295 299 300 293 299 309 308 313 310 298 295 290 282 279 264 246 240 244 243 242 242 239 236 233 231 230 226 222 221 221 221 220 220 223 224 225 223 221 220 219 220 222 223 223 222 221 218 216 215 215 214 213 213 213 211 210 211 211 211 211 210 209 208 208 208 208 209 208 206 206 207 207